Location: Cosy Dell
(34.2789°N, 117.4537°W)
Time: 11:00:51
(UTC+00:00)

Resurs 1-4 Rocket - Pass Details

Date: 14 July 2020
Orbit: 800 x 814 km, 98.6° (Epoch: 08 August)

Event Time Altitude Azimuth Distance (km) Brightness Sun altitude
Rises 08:11:24 0° 33° (NNE) 3,336 6.1 -34.0°
Reaches altitude 10° 08:14:35 10° 53° (NE) 2,397 5.0 -34.0°
Enters shadow 08:16:39 16° 75° (ENE) 2,008 4.3 -33.9°
